GFSNGP_sfc_thetae_273.txt.gz
Theta_e
304 304 304 301 300 300 298 300 295 297 296 301 302 303 303 302 302 300 300 300 302 303 305 305 304 305 306 307 306 304 303 304 304 303 304 303 304 302 303 305 303 304 304 306
300 303 301 299 300 301 300 300 299 298 298 302 302 302 301 299 299 299 299 301 303 303 303 302 303 303 303 303 303 304 304 303 303 304 303 303 302 304 303 302 303 304 304 304
296 301 300 296 301 301 300 301 300 297 301 302 300 299 298 298 300 299 300 302 302 302 302 301 301 303 302 303 305 305 305 304 304 304 302 302 304 305 304 303 306 304 303 303
298 299 290 301 308 306 303 302 301 302 302 303 302 300 300 301 301 300 301 301 301 302 301 302 302 302 304 305 305 305 304 303 304 305 302 302 303 303 304 304 303 304 304 306
297 296 298 301 305 303 301 301 304 302 302 301 301 301 299 302 303 302 303 301 302 301 302 302 303 303 304 304 303 303 302 303 304 305 302 304 301 301 302 303 303 303 303 303
298 291 289 301 306 308 307 297 303 303 302 301 301 296 298 303 303 303 303 302 302 302 303 304 304 306 303 302 302 301 302 303 304 304 305 304 303 302 303 304 304 304 304 305
297 296 299 305 307 307 293 295 303 304 303 302 300 301 302 304 303 304 303 302 303 303 302 305 306 303 302 302 302 304 305 304 305 305 304 304 304 302 304 306 306 305 305 306
298 294 290 307 305 299 304 304 304 304 304 303 302 302 303 303 303 302 300 302 304 303 303 304 304 303 302 302 305 305 306 305 306 306 305 304 304 305 308 308 308 306 306 305
301 301 306 308 308 308 307 306 304 304 303 304 303 302 302 303 301 300 301 303 304 302 304 305 305 304 302 303 305 305 306 306 306 306 305 305 307 308 309 308 306 306 307 308
304 305 306 306 306 306 307 306 305 305 304 304 303 303 303 301 301 301 302 302 304 303 304 305 305 305 304 305 306 305 307 308 306 307 307 306 309 306 307 309 308 306 306 305
304 307 307 305 306 306 306 306 305 305 304 304 304 303 302 302 301 303 302 304 303 303 305 305 306 305 307 308 307 308 308 309 310 310 311 309 310 308 310 311 304 303 303 306
303 309 309 307 307 307 305 305 305 304 303 304 304 304 304 301 303 303 302 303 302 304 306 305 307 306 306 310 310 310 309 308 306 307 311 312 312 312 296 295 295 292 291 297
309 310 308 308 307 307 306 305 306 304 304 304 305 305 303 303 304 303 303 303 305 305 305 307 306 306 307 309 308 311 310 309 309 310 312 309 311 310 310 303 295 294 292 292
310 309 305 306 305 307 307 306 306 305 305 306 306 306 306 305 305 303 303 303 304 306 307 307 306 305 305 307 311 311 312 300 313 312 312 312 312 311 309 306 304 304 296 295
308 309 309 309 307 306 307 306 304 304 305 305 306 306 305 303 304 303 304 304 305 306 305 306 306 305 306 307 307 310 310 312 311 313 313 311 313 312 309 307 306 304 303 298
307 306 307 306 305 306 305 305 303 304 304 305 306 306 304 305 305 304 304 307 305 306 306 307 307 309 309 311 312 312 313 301 302 311 312 311 310 308 307 306 305 304 301 299
306 301 303 305 305 305 305 305 305 305 305 305 306 307 305 306 304 305 306 307 308 309 309 309 310 312 311 309 313 312 312 312 300 312 311 310 308 307 307 306 304 303 300 295
312 311 309 307 306 306 305 306 306 306 305 306 307 308 307 305 305 304 307 309 310 310 311 312 313 311 311 314 314 314 311 311 309 309 309 308 307 308 307 306 305 304 303 298
312 310 306 306 307 308 307 306 306 307 308 308 307 308 309 308 307 309 309 308 309 308 310 313 302 307 311 309 305 312 311 309 308 308 308 301 308 307 306 306 305 305 304 302
311 311 309 305 308 308 307 308 307 307 308 308 307 308 308 308 309 309 308 307 308 310 314 314 312 312 310 308 297 311 311 310 308 308 307 308 308 306 304 296 301 302 301 300
310 311 310 306 306 307 308 308 307 306 307 308 307 307 308 310 311 310 308 306 310 311 313 306 311 311 309 302 303 313 313 312 309 309 308 308 307 307 305 303 302 301 300 300
310 310 311 308 305 306 307 308 308 308 308 307 308 308 307 308 310 309 311 308 309 297 308 310 310 301 306 292 311 310 308 310 310 310 308 308 308 307 305 304 302 301 300 300
310 310 309 305 304 305 306 308 308 308 308 308 308 308 308 308 310 308 306 311 308 303 308 308 300 291 288 307 302 309 310 311 308 312 309 308 307 307 306 304 303 301 301 300
309 306 304 303 303 303 304 307 309 309 310 310 310 310 309 307 308 311 312 302 297 301 308 308 301 288 286 306 304 307 305 303 306 312 307 295 307 306 305 304 303 302 301 298
308 307 305 304 305 306 308 308 308 308 308 309 309 310 311 311 309 310 312 311 297 302 310 294 289 288 302 305 303 304 301 302 304 311 305 306 307 306 306 304 303 302 301 299
309 310 310 310 308 308 308 307 306 305 306 307 308 310 309 310 310 309 310 304 311 303 310 311 310 307 304 306 304 305 305 309 307 307 307 308 307 306 305 304 302 300 301 300
308 300 309 308 307 307 306 305 305 306 306 308 307 309 310 310 309 306 302 309 309 309 310 311 311 305 308 307 306 305 308 311 303 310 309 309 308 307 306 305 303 302 300 299

GFSNGP_sfc_thetae_276.txt.gz
Theta_e
306 306 305 304 303 303 302 302 298 299 300 305 306 307 308 308 304 304 303 305 304 303 303 302 303 305 306 306 307 308 306 307 305 304 304 305 305 304 305 306 307 309 308 308
303 305 304 301 303 303 302 302 302 302 300 308 308 308 306 304 304 301 303 303 303 303 302 302 303 304 305 307 306 307 306 306 305 305 305 307 308 309 308 307 309 308 309 307
299 303 302 300 303 303 303 305 303 300 305 308 306 306 305 304 303 303 303 303 304 302 303 303 304 306 305 305 307 307 308 308 306 307 304 304 306 305 306 306 310 308 308 308
300 302 293 304 310 307 304 305 307 306 306 307 307 307 306 306 304 303 304 304 304 303 303 306 306 307 305 307 306 307 307 308 307 308 305 305 305 304 304 305 304 304 304 305
298 299 300 303 306 305 303 302 307 305 306 306 307 306 304 306 305 305 305 306 305 305 305 306 307 306 306 306 307 306 306 306 307 308 308 305 307 308 306 308 308 307 307 306
302 294 292 303 308 311 309 298 307 307 306 305 305 299 302 306 305 306 306 306 306 306 306 306 306 308 307 307 306 305 306 307 309 310 308 306 310 310 309 311 310 309 307 307
299 299 301 309 310 311 297 300 308 307 306 305 303 304 306 306 306 307 305 307 307 306 305 305 306 307 306 308 307 308 309 310 310 310 310 312 313 312 310 306 306 307 308 313
301 298 294 312 310 303 309 311 308 307 306 305 306 305 305 306 305 304 304 306 306 305 304 306 307 307 306 306 308 309 310 310 309 311 312 313 314 312 315 314 312 312 315 314
304 304 312 314 313 314 312 308 308 307 307 307 305 304 304 305 304 304 305 307 306 308 306 307 307 308 306 308 310 311 310 310 312 313 313 314 315 314 314 315 313 312 311 310
309 311 311 312 313 313 312 310 309 309 307 306 305 304 305 305 305 307 305 306 307 308 305 306 308 309 309 310 312 311 311 313 314 314 314 315 314 315 310 308 309 310 311 311
307 311 312 311 312 311 311 310 308 307 307 306 306 305 306 306 306 306 308 307 307 307 307 307 309 310 312 313 313 312 312 312 311 314 315 315 314 311 309 305 301 307 310 309
305 313 311 312 313 312 310 308 307 306 305 306 307 307 307 307 308 305 307 305 309 309 309 308 308 311 312 314 313 312 311 313 312 312 313 314 312 309 293 295 293 292 291 296
313 315 314 315 313 312 310 309 307 306 307 306 308 308 308 308 308 306 305 308 308 308 311 308 311 312 314 315 314 313 314 313 316 311 311 311 311 310 308 300 294 293 292 292
316 315 311 312 311 312 311 309 308 308 308 308 308 309 309 308 308 308 305 306 310 309 310 307 308 311 313 315 315 314 316 301 312 312 311 311 311 310 309 307 306 306 294 294
314 314 315 315 314 312 312 309 307 306 307 307 309 309 308 305 306 305 305 309 310 309 310 308 307 307 309 315 315 316 315 313 315 313 313 311 312 310 309 308 307 305 305 299
316 313 310 312 311 311 310 308 307 306 307 307 309 309 308 309 307 307 310 311 310 309 310 311 311 313 316 317 317 317 316 304 307 312 310 310 309 308 308 308 307 305 303 301
314 311 310 311 309 311 309 309 308 308 307 308 309 310 310 307 308 309 311 312 312 312 313 313 313 316 315 318 318 316 315 315 305 314 310 309 309 308 308 307 306 305 304 299
317 317 316 314 313 311 309 310 309 309 307 308 310 311 310 308 307 309 310 313 313 313 314 315 316 315 317 318 318 317 314 312 311 309 310 308 309 309 308 307 306 305 306 302
315 315 317 315 314 313 311 311 311 311 310 310 310 310 311 311 311 312 313 312 311 311 313 316 304 310 317 310 306 314 313 312 310 310 310 303 310 308 307 306 305 305 304 303
314 315 316 316 314 313 311 312 312 311 311 311 310 310 311 311 312 313 313 312 313 313 317 317 315 318 318 314 301 313 315 314 311 309 307 309 308 308 307 299 303 303 303 303
314 315 315 316 314 310 311 313 312 311 310 311 310 310 310 312 313 313 311 310 315 315 317 309 316 317 316 307 309 313 312 313 313 312 310 309 311 308 307 306 304 303 302 303
314 314 315 316 314 311 309 311 311 311 312 311 311 311 311 311 312 313 314 312 315 299 313 316 316 304 310 295 313 316 315 315 314 315 315 312 311 310 308 306 305 304 303 303
311 312 313 313 313 311 308 309 310 312 312 312 311 311 311 311 310 309 309 315 313 306 313 316 302 291 289 310 316 313 315 315 315 314 315 315 313 312 310 308 306 305 303 302
314 314 310 308 305 304 303 307 312 315 314 313 313 313 312 310 311 313 313 303 299 302 309 312 305 290 286 313 314 313 313 313 304 312 315 295 314 313 312 310 308 307 306 301
314 309 308 306 306 305 307 311 312 313 312 312 312 313 314 314 311 311 313 313 298 303 311 297 290 288 308 311 314 313 314 307 305 312 314 311 312 312 313 311 309 308 307 305
309 311 314 313 314 313 312 312 310 310 309 309 309 311 312 314 314 312 313 307 314 306 312 313 313 311 311 312 312 311 310 314 313 314 310 314 313 312 312 310 309 307 307 306
308 302 310 313 315 314 313 311 310 309 307 308 307 309 310 311 311 309 305 312 313 313 313 314 314 309 313 313 312 311 311 312 305 315 315 314 313 312 311 311 310 309 307 305

GFSNGP_sfc_thetae_279.txt.gz
Theta_e
306 306 306 304 304 304 303 303 299 301 302 306 308 308 308 309 308 307 304 305 303 303 303 304 305 307 307 307 309 309 309 307 306 308 310 307 308 309 310 310 309 310 310 311
304 305 304 302 304 304 304 304 304 303 303 308 309 310 308 307 306 305 305 303 302 303 305 303 305 306 306 308 310 310 308 307 308 307 309 307 310 311 311 311 310 310 310 310
299 303 303 299 304 304 304 306 305 300 305 308 306 306 306 305 304 304 304 303 302 305 304 305 305 306 306 308 309 309 310 310 309 308 306 308 309 308 308 308 307 306 307 310
302 303 294 305 311 307 305 307 307 305 307 308 308 308 308 307 306 305 304 303 306 306 306 308 306 308 309 310 310 309 309 308 308 308 308 308 310 311 311 311 311 307 307 308
300 300 302 304 307 306 304 304 309 306 307 308 308 307 303 305 307 305 305 307 307 308 308 307 307 309 309 309 309 308 308 307 310 310 311 311 311 312 313 312 310 309 310 311
302 296 294 304 309 312 311 299 309 308 307 307 307 301 300 305 307 305 307 309 308 308 308 307 309 310 309 308 309 309 310 309 311 312 312 310 311 311 312 312 312 312 313 314
300 300 303 310 311 312 299 302 311 309 309 308 305 306 308 308 306 308 308 308 308 308 307 307 309 310 307 309 308 310 311 311 313 314 313 313 314 315 314 313 315 314 315 317
302 299 297 314 310 303 311 313 311 310 309 308 307 307 305 306 306 306 307 307 308 307 309 309 309 309 308 310 312 313 313 312 314 315 313 315 316 316 316 315 315 314 317 316
305 306 316 315 314 316 315 312 311 310 309 308 307 305 306 306 306 308 307 307 310 307 309 310 310 311 310 312 313 313 312 312 314 315 316 316 314 314 313 315 313 311 313 312
310 310 312 314 315 315 315 312 312 310 308 309 307 306 305 307 306 307 309 306 309 307 308 309 311 312 312 313 313 313 313 313 315 315 315 315 313 310 307 307 308 308 310 310
307 310 313 314 314 314 313 312 309 309 309 308 308 305 307 307 308 309 307 309 309 309 309 310 311 312 313 313 314 313 315 314 316 315 315 313 310 308 307 303 300 304 304 308
305 313 311 312 314 313 312 310 308 307 307 309 308 306 308 308 309 309 310 310 310 312 310 311 312 311 314 315 315 314 313 314 312 314 314 314 311 307 293 295 294 292 292 295
313 317 315 314 314 314 312 310 308 308 309 308 308 309 309 309 310 306 311 309 310 309 311 312 312 312 314 315 316 315 316 316 313 313 313 312 313 312 308 299 296 293 292 291
318 318 314 314 313 314 312 310 309 309 310 310 309 309 310 309 309 308 307 311 310 311 311 312 312 312 314 314 315 315 316 305 314 313 313 312 312 311 310 308 307 304 293 296
317 318 316 317 315 314 313 310 308 308 309 309 309 310 311 308 309 307 310 311 312 311 308 309 311 313 316 316 315 316 313 311 313 315 314 311 311 310 310 309 307 305 304 298
319 320 316 314 314 313 312 310 309 308 309 309 309 309 310 311 311 311 312 312 311 310 309 310 312 315 317 317 316 316 313 307 306 313 312 311 310 309 309 308 308 306 302 301
314 315 315 314 314 314 313 311 310 310 309 310 310 311 311 310 311 310 312 313 313 312 313 313 313 315 317 318 317 316 315 314 308 312 311 310 310 309 309 308 307 307 306 300
315 316 318 318 316 315 314 313 311 311 310 311 312 311 311 311 310 311 312 314 312 313 314 316 316 317 317 316 317 317 314 313 311 310 310 309 309 310 309 307 306 306 306 303
316 315 315 316 318 317 315 313 312 313 312 312 311 311 312 312 313 313 314 312 311 311 313 316 306 310 318 312 309 314 313 312 312 312 312 304 310 309 307 306 305 305 305 304
315 316 316 316 318 318 316 314 313 312 312 312 311 311 310 312 314 313 313 312 313 314 318 318 316 317 317 314 305 313 313 313 313 312 310 309 308 309 308 300 304 304 304 304
315 315 316 317 317 317 317 315 313 312 313 312 311 311 312 314 314 314 313 310 315 316 316 312 316 315 315 309 310 313 312 313 312 313 312 311 311 309 308 307 306 304 304 304
313 313 314 315 315 315 317 313 314 314 313 311 312 312 311 312 312 312 316 314 316 301 314 315 316 308 310 297 314 312 314 314 314 313 314 314 311 310 310 308 306 305 304 304
313 315 315 313 314 315 315 313 312 311 311 313 313 313 311 311 311 309 308 317 317 305 315 315 295 291 291 313 314 314 313 313 314 314 314 314 314 313 311 309 306 306 305 303
314 314 315 315 314 311 310 309 310 311 312 314 315 315 314 310 310 314 315 305 301 304 313 311 303 290 288 314 314 312 313 313 315 313 313 298 313 313 313 311 309 309 307 301
312 313 315 315 313 310 309 310 311 311 313 314 315 315 315 314 312 312 314 313 299 305 314 297 291 290 309 312 314 313 314 313 315 313 314 314 314 314 314 314 311 310 308 307
312 311 309 312 314 314 313 312 310 311 310 310 310 312 312 314 314 312 314 308 313 306 313 313 313 312 312 312 313 312 312 314 312 313 311 315 314 315 315 314 312 310 308 308
311 304 308 309 310 310 312 312 311 308 309 309 308 311 312 312 311 309 306 311 312 312 313 313 313 309 314 313 312 313 314 314 306 315 314 314 315 314 315 314 313 313 310 307

GFSNGP_sfc_thetae_282.txt.gz
Theta_e
306 306 305 304 303 304 302 302 298 300 302 304 306 306 307 308 307 306 305 304 304 304 303 303 305 307 307 309 308 310 309 308 309 310 311 309 310 310 310 310 310 310 310 310
306 304 304 302 304 304 303 303 303 303 301 308 310 310 307 307 305 304 304 304 304 303 304 304 305 306 307 309 309 310 310 308 308 309 311 310 311 310 309 308 308 310 310 310
301 306 303 301 303 303 303 306 303 297 303 307 306 306 306 306 305 304 304 304 304 304 304 306 305 308 308 309 310 309 309 309 310 311 309 311 311 311 310 310 309 308 308 309
301 304 293 304 309 307 304 307 307 306 305 307 307 308 307 307 305 304 304 304 305 306 306 307 308 309 310 311 309 309 309 310 311 310 309 312 312 312 312 313 311 309 309 310
300 299 303 304 306 304 303 304 309 306 305 307 309 308 305 306 307 306 306 306 307 308 308 308 308 310 310 310 310 309 309 310 311 312 311 311 311 312 314 315 313 314 314 313
301 296 293 303 308 311 311 299 309 307 306 306 307 300 301 306 306 306 308 308 307 308 308 308 309 311 310 309 309 308 310 311 312 313 313 313 314 315 316 315 310 315 315 316
299 299 303 309 310 311 298 300 310 309 308 307 303 305 306 308 306 308 309 308 309 308 308 309 310 310 309 311 308 311 312 313 314 314 311 314 317 317 316 316 313 315 313 316
303 300 296 312 310 303 310 314 311 310 308 307 308 307 307 307 307 307 307 307 308 307 308 310 311 310 309 310 313 313 313 314 314 316 316 318 317 317 312 314 311 314 315 315
306 305 317 315 312 315 315 311 310 309 308 308 308 306 307 306 307 308 308 307 309 308 308 310 311 313 311 312 313 314 314 314 315 316 317 316 314 311 308 309 310 310 309 313
308 309 312 314 314 314 314 311 310 309 309 309 307 307 305 307 307 308 308 307 309 308 308 309 312 312 314 314 314 314 314 314 315 317 316 316 312 309 306 305 306 306 308 305
307 310 313 313 313 313 313 312 309 309 309 309 308 307 307 308 308 308 308 309 310 309 310 310 312 313 313 314 316 314 314 314 316 314 315 313 308 304 306 301 298 302 301 303
305 312 311 311 313 313 312 310 309 308 308 310 309 307 309 308 309 309 309 310 310 311 311 311 312 312 314 316 316 316 314 314 314 312 315 315 310 306 294 295 295 293 292 296
313 317 315 315 314 314 312 309 308 308 309 309 309 309 310 309 310 307 309 310 310 310 311 311 312 312 314 315 317 316 313 314 315 313 312 313 312 312 305 299 296 295 292 292
318 318 316 316 313 314 313 311 309 310 310 312 310 310 311 310 309 308 308 310 311 311 311 312 311 312 315 315 315 313 316 308 310 314 315 313 315 314 312 309 305 304 295 294
318 321 317 317 316 315 314 311 309 309 309 310 311 311 311 309 310 309 311 311 312 312 310 310 310 312 314 316 317 317 315 313 315 314 315 312 314 313 310 311 311 306 304 299
315 317 317 315 315 316 314 312 309 310 310 310 311 310 312 311 311 311 312 312 310 310 312 310 312 315 316 316 317 315 313 308 306 314 312 313 311 310 309 312 312 307 303 304
311 310 312 313 315 315 314 314 313 311 311 310 311 312 312 311 311 310 312 313 314 313 313 313 313 316 316 314 315 317 316 316 308 312 311 309 310 311 311 310 308 308 306 303
315 315 315 314 313 313 315 317 314 312 312 311 313 312 311 311 310 311 312 315 315 313 315 314 314 314 317 316 317 317 316 313 312 310 312 310 311 311 309 307 307 306 307 304
315 314 315 315 315 315 315 318 315 313 314 312 312 312 312 313 313 313 314 313 313 311 313 315 307 310 317 315 311 312 312 313 312 311 311 304 310 310 308 307 305 307 305 304
314 315 315 315 316 317 317 319 317 313 315 313 313 311 311 312 314 313 314 313 315 315 319 319 315 318 318 315 307 311 312 312 313 312 310 309 309 309 309 299 303 303 306 306
313 313 315 314 314 316 318 318 316 314 313 313 312 311 312 315 314 314 314 311 317 317 316 310 315 315 316 310 312 312 311 313 313 313 314 312 310 310 308 308 307 306 306 306
311 312 313 314 314 314 317 317 315 316 315 312 312 312 313 314 314 314 315 314 314 302 312 315 316 308 309 301 313 312 313 312 313 313 313 314 313 310 310 309 307 307 306 307
310 312 313 313 312 314 315 316 316 314 312 312 312 312 314 313 312 310 309 316 315 308 313 314 300 293 294 312 313 312 313 312 314 313 312 314 312 313 312 309 308 307 307 305
311 311 311 313 313 313 312 313 313 314 313 313 313 314 314 311 312 314 316 307 303 303 311 312 298 289 291 314 314 313 311 314 312 311 313 299 313 313 313 312 309 309 307 301
313 313 312 310 310 310 311 313 313 312 311 312 312 313 313 315 312 311 313 313 300 304 313 295 292 290 309 313 314 313 313 310 313 310 314 314 314 315 313 314 313 311 309 308
312 310 311 312 311 310 311 307 306 311 311 311 312 314 314 314 314 313 314 308 312 305 312 312 307 307 311 312 312 312 313 312 309 312 310 312 313 314 313 312 310 311 310 309
310 303 309 310 312 311 308 306 305 306 308 310 308 311 312 311 312 309 307 312 313 312 312 313 312 307 313 313 312 312 312 313 304 313 314 312 313 315 315 312 312 315 313 311

GFSNGP_sfc_thetae_285.txt.gz
Theta_e
303 303 303 302 301 301 297 298 294 297 296 299 300 300 301 301 301 301 300 300 298 298 297 299 301 301 303 304 307 306 306 306 304 305 304 305 307 305 304 303 304 307 306 305
302 306 304 301 302 301 302 300 298 298 296 303 304 304 302 301 301 299 300 300 299 300 301 300 301 302 303 304 307 305 304 307 307 305 305 305 307 308 307 306 306 304 303 304
296 304 303 295 300 300 301 300 299 293 295 302 302 302 300 299 300 300 300 300 300 300 301 301 301 305 305 306 307 306 305 308 308 308 305 305 306 306 304 304 305 305 306 306
297 302 289 301 305 306 303 304 303 302 302 303 300 300 300 300 299 300 301 300 303 301 301 301 302 303 306 308 308 305 305 306 307 306 305 306 306 306 304 303 303 306 304 303
294 295 299 303 305 302 301 299 304 303 303 304 303 301 299 302 302 301 301 302 302 302 301 303 303 306 307 306 305 304 305 305 307 307 306 305 304 305 306 304 304 304 305 303
297 293 290 301 306 309 307 295 304 304 302 302 301 292 294 301 303 303 303 302 305 302 302 303 303 306 306 304 304 303 305 309 310 307 306 306 309 309 310 309 308 307 306 304
297 295 300 307 308 309 292 294 306 303 302 301 297 297 300 304 302 305 304 303 305 301 302 303 304 306 304 307 306 307 308 310 310 309 306 308 310 309 310 307 308 306 309 305
298 294 292 310 307 299 302 305 305 303 302 301 302 302 302 302 304 305 304 303 306 302 302 304 305 305 307 303 307 307 310 311 309 311 310 310 304 305 307 307 305 308 306 306
299 298 308 308 307 308 307 304 303 302 303 305 302 302 302 301 302 303 303 303 304 302 304 305 306 306 306 306 308 309 310 308 308 309 309 308 299 297 298 299 300 301 299 300
301 307 307 309 309 309 307 304 304 305 305 305 302 302 302 303 303 302 303 305 305 305 306 304 306 308 306 308 309 311 307 307 307 307 306 303 303 297 294 293 294 294 297 292
302 308 309 308 308 308 308 307 305 305 306 305 303 302 306 304 303 304 303 306 304 306 306 305 308 307 308 309 311 309 308 307 307 305 305 301 296 296 294 289 289 289 288 291
300 307 305 305 307 311 307 304 305 305 305 306 304 303 306 303 304 306 305 304 305 305 305 308 307 308 309 310 310 310 307 306 305 307 308 307 298 294 293 293 294 293 292 289
307 310 310 310 313 311 307 305 306 306 307 305 306 305 307 306 304 305 305 305 305 305 307 307 307 307 309 309 309 309 307 307 307 306 307 307 302 298 294 294 295 294 293 292
315 314 309 312 308 310 308 306 308 307 309 307 306 306 308 305 304 304 303 305 306 307 308 307 307 307 309 310 308 307 307 305 306 306 305 307 306 305 301 296 292 294 295 292
312 312 314 313 314 311 310 309 308 306 307 306 306 307 307 307 305 305 307 307 307 308 306 307 308 307 309 311 310 309 309 307 306 306 306 306 305 301 301 300 299 297 294 294
311 311 310 309 310 311 311 308 306 308 308 307 306 307 307 308 308 307 307 308 305 304 307 306 307 311 313 311 309 308 309 305 302 305 307 304 301 301 300 300 297 294 294 294
308 306 308 308 309 309 310 314 312 308 308 307 307 308 308 307 307 307 307 309 308 308 309 306 307 312 313 312 310 309 308 309 304 308 305 300 299 301 300 299 298 296 295 295
311 311 310 310 310 310 311 314 315 313 308 309 311 309 308 307 305 305 307 308 309 309 309 309 310 311 311 312 309 310 309 307 308 306 302 301 300 300 297 297 297 298 296 295
312 310 312 313 312 311 311 313 314 314 312 311 310 308 308 308 308 310 309 309 308 307 307 311 308 307 310 309 308 308 305 305 307 306 301 299 300 301 298 296 296 296 296 297
309 310 311 313 314 313 311 314 314 312 312 309 311 309 307 308 309 309 309 307 308 308 310 311 308 308 310 310 304 307 308 306 308 309 305 303 299 299 299 295 296 296 296 297
308 309 309 311 312 313 312 313 314 311 312 311 309 309 310 310 311 309 307 307 310 311 311 308 310 313 313 307 307 307 307 305 306 306 308 309 306 300 300 299 298 296 296 296
307 307 308 310 310 310 311 312 312 312 311 311 313 311 309 309 311 310 310 307 311 305 310 309 311 304 308 303 310 307 306 308 309 309 306 307 309 308 304 300 298 298 297 295
308 309 308 308 308 308 311 310 310 310 311 310 311 311 309 310 310 308 307 310 310 304 311 311 303 294 291 303 306 307 308 308 306 309 306 307 308 308 308 304 300 298 296 295
309 310 308 308 308 307 306 306 308 310 309 310 311 312 310 309 310 311 312 305 302 301 309 309 300 290 288 308 307 307 307 308 307 306 309 299 307 306 306 307 303 301 298 295
306 310 310 307 305 305 305 306 307 306 307 306 309 312 313 313 311 312 313 310 300 301 309 296 291 290 300 307 308 310 308 308 308 307 306 308 309 306 307 308 308 304 301 299
307 307 307 308 307 306 305 305 303 305 305 305 306 309 311 312 313 311 312 307 308 301 308 311 303 300 306 309 309 310 310 310 307 307 306 307 309 309 308 308 308 304 304 302
305 300 303 305 306 307 307 304 303 303 303 305 305 309 310 309 309 308 305 309 309 307 307 308 310 302 306 308 309 309 310 309 303 308 308 309 309 309 309 309 309 309 307 304

GFSNGP_sfc_thetae_288.txt.gz
Theta_e
300 302 301 300 299 299 296 296 292 294 294 296 298 297 297 297 297 298 297 297 296 295 296 297 298 300 302 301 303 303 306 304 302 302 303 304 304 304 305 302 302 303 303 301
300 302 301 299 299 298 298 297 296 296 294 299 300 299 298 298 298 297 297 298 298 298 298 298 299 301 303 303 302 303 306 307 304 303 304 304 303 304 303 302 305 306 306 302
294 303 301 293 300 300 299 300 297 291 294 300 297 297 296 296 298 299 298 298 298 299 299 299 300 302 302 303 303 304 304 306 305 304 304 307 306 306 306 306 304 305 305 304
293 297 288 300 306 303 300 301 300 301 300 298 297 297 297 297 297 298 299 300 299 299 298 300 300 303 303 304 303 303 304 304 305 305 304 305 306 303 303 306 302 301 301 299
291 292 296 301 305 301 298 296 302 300 299 299 299 298 296 299 299 299 299 299 299 299 299 299 301 303 303 303 302 303 304 304 305 305 305 307 307 307 303 301 302 302 301 300
296 291 288 300 306 307 304 292 302 301 299 298 298 289 292 299 304 300 300 301 300 300 300 300 301 304 302 302 301 303 307 307 307 307 305 307 308 308 308 305 303 304 303 301
295 293 298 305 307 307 289 290 301 301 299 298 295 295 297 301 301 301 301 301 301 299 300 300 302 305 301 303 303 305 307 309 308 307 305 305 303 307 307 306 307 304 302 301
296 292 289 308 305 296 299 300 300 300 299 298 299 299 299 300 301 302 300 300 301 300 300 302 303 303 305 301 304 309 308 307 307 306 307 306 296 297 300 301 302 300 301 298
297 296 303 304 303 303 302 300 299 299 300 301 300 299 299 299 300 301 300 301 302 301 301 302 304 303 302 304 305 307 305 304 305 305 304 302 294 293 293 294 295 295 295 294
300 306 306 304 304 304 302 300 302 303 302 302 299 299 300 301 300 300 301 302 302 304 302 302 304 306 304 306 309 306 304 305 305 304 306 300 299 292 289 288 288 291 293 289
299 304 304 304 305 305 303 303 303 304 304 302 301 301 302 301 301 301 301 303 302 303 302 303 305 305 306 308 308 305 305 305 304 305 306 305 299 295 291 288 288 286 285 289
296 303 302 303 305 306 303 302 303 304 303 303 302 300 302 301 301 302 304 303 303 303 303 304 305 306 307 308 307 308 305 304 303 305 306 306 297 293 293 292 292 292 291 288
305 309 307 307 308 308 303 302 305 306 304 303 303 303 302 302 301 303 303 303 303 303 305 304 305 305 307 308 306 305 303 303 304 306 304 301 300 295 292 292 294 293 292 292
311 313 308 312 310 308 305 304 307 306 305 305 304 304 304 303 302 302 303 304 304 305 305 305 305 305 307 308 306 305 304 302 303 303 303 302 302 300 296 294 292 292 294 293
310 309 307 310 311 309 307 305 306 305 305 304 304 304 305 303 302 302 303 304 305 305 305 306 306 306 307 307 307 305 306 306 306 306 305 303 301 299 300 298 294 294 294 293
308 308 307 307 307 308 309 310 306 306 307 305 305 304 307 306 305 305 306 305 303 302 305 304 304 306 308 308 306 305 305 303 301 304 304 303 298 297 296 298 297 296 291 292
304 304 305 305 306 307 307 309 310 311 311 307 306 306 306 305 304 304 305 305 305 305 306 305 305 307 309 308 306 306 306 305 300 302 303 301 296 298 297 297 294 293 293 293
306 305 306 307 307 307 308 310 311 311 310 309 308 307 306 304 303 303 304 305 306 306 306 307 307 308 309 308 306 306 309 305 305 303 303 300 297 298 295 294 296 295 294 293
307 306 307 309 310 310 309 308 310 311 311 309 309 308 306 307 304 305 305 305 305 304 306 308 306 305 307 308 305 305 307 308 307 305 305 300 299 298 298 294 294 296 296 295
305 306 307 309 309 309 308 309 309 310 311 308 308 306 306 307 306 307 307 305 305 307 308 308 307 307 306 306 301 305 305 305 305 306 307 306 303 296 297 293 294 294 294 295
304 305 306 308 307 308 308 308 308 308 309 311 310 309 309 308 308 308 307 305 306 309 308 305 307 307 309 306 306 306 304 304 304 305 304 304 307 305 298 298 295 294 294 294
307 305 305 306 305 304 307 306 306 308 308 308 309 310 309 309 309 308 308 308 310 301 309 311 311 304 308 301 306 305 305 304 304 305 306 304 303 304 306 300 296 295 295 293
304 305 306 307 304 303 304 304 304 305 305 306 307 307 308 309 309 307 306 309 310 305 307 308 302 292 291 303 306 308 308 307 305 304 307 307 305 304 304 306 302 297 296 294
301 303 305 307 304 302 301 301 302 303 304 305 306 307 308 308 308 311 312 305 301 301 305 306 300 291 290 306 307 308 306 305 304 304 304 298 304 304 304 304 306 299 297 293
302 303 302 303 301 300 301 301 301 301 302 302 303 304 308 311 309 310 312 312 300 300 307 296 292 291 298 303 306 306 307 307 306 305 305 305 304 306 305 305 307 305 301 297
300 301 300 303 302 302 302 301 299 300 300 301 302 303 307 309 308 308 308 305 309 305 307 307 304 301 303 304 305 307 307 307 306 306 306 306 305 306 307 308 307 304 302 301
301 298 298 299 301 302 304 301 300 300 300 300 302 303 304 305 306 305 302 310 311 311 309 306 304 301 306 306 306 307 309 309 304 309 308 307 308 308 309 309 309 309 306 302

GFSNGP_sfc_thetae_291.txt.gz
Theta_e
297 300 299 298 297 298 296 295 289 294 294 295 296 294 294 295 297 297 297 298 296 295 295 296 297 299 301 301 301 302 305 303 301 303 302 305 305 303 305 304 303 303 301 299
297 300 300 297 299 298 297 295 295 294 292 296 296 296 296 296 297 295 297 298 296 297 296 297 299 300 301 302 302 302 302 303 304 305 306 303 306 307 306 304 305 306 304 299
292 300 298 293 298 297 296 297 294 289 293 296 296 295 294 295 296 298 298 297 297 298 297 298 298 300 300 302 302 302 302 304 304 303 305 304 303 303 302 303 304 304 300 299
293 296 286 300 304 302 299 299 299 299 297 297 295 295 296 296 299 297 297 298 298 298 297 298 299 300 301 303 302 302 302 303 304 307 306 305 304 302 301 300 299 298 298 297
293 292 295 300 305 302 297 295 300 297 296 297 297 296 294 298 297 297 297 298 298 298 298 299 300 301 302 301 301 302 303 304 305 307 306 306 305 303 301 300 300 299 298 299
296 289 286 298 304 307 302 290 300 299 296 296 296 288 291 298 300 299 299 299 299 299 299 299 300 301 300 300 301 304 305 305 305 305 303 302 303 303 307 305 301 302 302 299
294 292 297 303 305 305 289 289 299 299 298 296 293 295 296 299 300 300 299 299 300 299 298 299 301 303 300 300 301 305 306 306 306 304 303 301 298 299 300 306 302 300 300 299
294 291 288 305 302 294 298 299 299 298 297 297 297 297 297 299 299 300 300 300 300 299 299 300 302 302 300 301 304 306 306 305 304 304 303 299 292 294 295 297 298 298 298 296
295 295 302 302 301 303 301 299 298 298 299 299 298 298 298 297 299 300 300 300 301 299 300 301 302 302 301 303 304 305 303 303 303 306 306 302 292 290 291 291 293 293 291 290
298 304 302 302 303 302 301 299 301 301 301 300 298 299 298 299 299 299 300 300 301 301 301 301 303 304 303 304 306 304 303 303 306 306 306 304 299 290 288 287 286 287 290 288
297 301 303 304 304 303 301 302 302 302 302 301 299 298 300 300 300 300 300 301 301 301 301 301 303 304 305 306 306 304 303 303 304 305 306 304 300 295 290 288 287 285 284 286
295 301 299 302 304 306 302 301 303 302 302 302 301 300 301 301 301 300 300 301 301 301 301 302 303 304 305 306 306 305 302 302 301 305 306 305 300 296 293 292 292 291 290 288
302 307 310 308 308 309 304 303 304 303 305 303 302 300 302 300 300 302 301 302 301 302 303 303 303 304 305 306 305 303 301 302 302 304 302 301 300 296 294 294 293 292 291 291
307 309 304 306 304 308 306 304 305 305 306 304 304 303 302 301 301 301 301 303 303 303 304 304 304 304 306 305 305 303 303 301 302 303 303 301 300 300 296 293 294 294 292 292
306 306 304 308 309 307 308 308 306 303 304 303 305 304 303 303 301 301 301 303 303 303 304 304 304 304 306 306 304 304 303 304 307 305 302 301 299 298 298 296 294 294 292 292
305 306 306 305 305 306 306 307 308 309 310 305 303 304 306 305 304 303 303 303 301 301 303 304 303 304 305 305 305 304 303 302 300 302 301 300 298 296 296 298 297 296 294 291
301 300 302 303 304 305 305 306 308 308 308 309 309 307 305 306 304 303 303 304 304 303 304 303 304 306 306 305 304 305 304 307 300 301 300 300 298 295 295 295 295 295 293 291
303 302 303 303 304 305 306 307 307 308 308 309 309 306 304 305 303 304 303 304 303 303 304 305 306 306 306 307 305 304 304 305 306 303 302 301 298 296 295 293 295 293 292 292
304 303 305 306 305 305 306 306 306 308 308 309 306 304 305 307 305 306 305 304 302 302 305 306 304 303 305 305 304 304 304 307 307 305 303 300 301 297 295 294 292 294 294 294
304 304 305 306 306 305 305 305 305 306 307 308 309 309 306 306 307 307 307 305 304 307 307 306 305 306 306 305 299 305 304 304 306 304 305 305 304 305 297 293 293 293 293 294
304 304 304 305 305 304 304 304 303 303 305 306 306 306 308 309 309 308 306 304 309 309 307 304 307 306 306 303 303 307 304 303 304 304 305 305 305 305 305 301 295 293 292 293
301 302 303 305 304 301 302 302 302 303 303 303 304 305 305 305 306 306 308 307 311 299 306 308 308 302 306 296 307 308 306 304 303 302 303 304 305 304 303 302 300 296 293 292
299 301 302 303 303 301 301 301 301 301 301 301 301 302 302 304 307 306 305 309 310 306 308 308 300 291 291 300 308 308 307 305 304 303 303 303 304 304 303 305 305 300 297 294
300 301 302 304 302 300 299 300 300 301 300 301 302 302 303 305 306 309 310 304 296 299 309 308 300 291 290 302 307 308 309 308 306 305 303 296 303 302 302 303 303 306 301 293
300 299 299 299 299 299 299 300 300 300 300 300 300 301 301 305 305 306 307 308 299 302 309 299 293 292 298 303 305 307 307 306 308 307 305 304 304 303 303 303 304 305 305 299
298 297 297 297 298 299 300 300 299 299 299 299 300 302 302 303 304 305 308 302 308 303 309 309 308 307 303 305 304 306 306 306 305 306 305 307 307 305 304 304 304 305 306 302
300 296 298 298 301 300 300 300 298 298 300 300 300 302 302 302 302 300 299 305 306 307 308 309 309 305 305 305 305 306 307 307 302 308 308 308 307 307 308 309 309 308 308 307

GFSNGP_sfc_thetae_297.txt.gz
Theta_e
301 301 301 299 299 300 299 300 295 298 298 301 303 303 303 303 303 302 301 302 304 304 305 305 307 309 310 311 312 313 312 310 311 315 316 315 316 313 314 314 313 312 311 312
299 302 302 299 301 301 300 298 298 299 297 302 302 302 301 302 302 302 303 303 304 305 305 305 307 308 309 311 312 313 312 312 312 315 315 316 315 315 314 314 313 313 312 312
295 302 301 295 300 300 300 301 300 296 300 303 303 301 302 302 303 303 303 303 304 305 306 307 307 309 310 311 313 312 312 313 314 313 314 315 315 314 313 313 313 313 312 311
298 299 288 299 305 304 301 301 303 303 303 302 302 302 304 305 304 304 304 304 305 307 307 308 309 310 311 312 311 312 313 313 314 314 310 314 314 314 314 315 314 313 313 312
296 294 296 297 300 301 299 298 303 301 302 302 302 303 304 305 305 305 306 307 308 309 308 309 309 311 311 311 311 312 313 314 314 314 312 307 308 314 317 316 316 315 312 310
299 292 287 297 303 308 308 292 304 303 302 302 302 297 301 306 306 306 307 308 309 308 309 309 310 311 311 310 310 312 313 314 315 315 314 311 308 312 316 317 316 315 313 311
298 296 295 304 305 306 291 295 307 305 304 304 301 304 307 308 307 308 309 308 308 309 309 310 311 311 311 311 311 314 315 315 315 316 314 314 310 310 312 314 316 316 315 313
299 294 290 308 305 298 304 308 307 307 306 305 307 308 308 307 307 308 308 309 309 309 309 311 311 311 311 311 314 315 316 315 315 316 314 315 315 311 308 310 311 312 311 313
301 299 309 309 308 311 310 308 307 307 308 308 308 307 308 307 308 308 309 310 310 309 310 311 312 312 312 313 314 315 315 315 312 315 313 317 315 314 308 306 304 303 304 306
303 307 308 310 311 310 309 309 310 309 308 307 308 309 309 309 308 308 309 309 310 310 309 310 312 313 314 315 315 315 315 316 315 313 314 314 316 314 311 306 304 305 304 301
305 308 308 308 310 309 310 310 311 310 308 308 309 309 309 309 309 310 310 310 310 309 310 311 313 313 315 315 315 315 316 315 314 312 314 316 316 314 313 312 304 305 307 305
300 306 306 307 309 310 309 310 311 308 307 309 309 308 309 309 309 310 311 312 310 311 311 312 312 313 314 316 316 315 314 312 313 314 314 314 313 313 299 297 293 291 291 297
307 309 308 309 311 312 311 311 312 312 313 311 312 312 311 310 311 309 309 311 311 311 312 312 312 312 314 315 316 315 315 315 314 311 314 313 313 312 311 307 294 292 291 291
308 308 304 306 304 308 310 311 311 312 313 313 312 314 313 311 312 310 309 309 312 312 312 312 312 312 315 315 315 315 315 304 312 314 314 314 313 312 312 311 310 312 296 294
306 307 306 307 306 306 308 308 307 308 310 311 312 312 313 312 312 311 313 311 311 312 312 312 311 313 315 315 315 315 314 314 314 315 315 311 312 312 311 310 311 311 311 300
305 306 306 304 304 305 304 304 304 306 306 308 309 310 311 313 312 313 315 309 310 310 312 312 312 314 315 315 315 314 314 304 303 314 314 313 313 311 311 309 310 310 309 311
304 303 305 304 304 304 304 305 305 305 305 305 306 308 309 311 312 312 311 310 309 310 311 314 314 315 315 315 315 314 313 314 305 314 313 313 312 311 311 309 309 308 309 308
308 308 309 309 307 305 304 305 305 305 305 305 306 306 307 307 306 308 312 314 311 310 310 312 314 316 316 316 316 315 314 314 314 313 313 313 313 314 313 311 309 309 309 308
309 308 308 309 310 309 307 306 306 306 306 306 306 305 307 307 306 305 307 310 308 307 311 313 307 306 313 313 311 315 314 313 313 313 313 307 312 313 313 313 312 312 311 308
306 307 307 308 310 309 308 308 308 307 307 306 306 305 305 306 306 306 306 306 310 310 310 312 310 312 313 314 301 311 313 313 313 313 313 313 312 312 313 305 311 312 312 311
307 306 307 307 307 309 309 310 308 307 307 307 306 305 306 307 307 307 306 304 308 309 307 306 310 312 313 309 312 310 311 313 313 313 312 312 312 312 312 313 312 312 308 307
308 307 307 307 306 306 308 309 309 308 308 307 307 307 306 306 306 307 308 307 309 297 306 308 310 303 303 294 311 313 310 313 314 314 314 313 313 312 312 313 313 313 313 313
307 306 306 305 305 306 307 307 307 307 306 307 307 306 305 304 307 305 303 309 310 304 308 309 298 292 290 302 307 311 314 311 311 313 314 313 312 312 312 312 313 313 313 314
306 306 306 306 307 305 303 304 305 306 306 306 307 306 304 303 306 307 310 303 295 297 306 306 301 290 290 302 307 307 311 311 310 310 310 300 310 310 311 311 313 314 314 311
305 305 304 303 302 301 301 301 301 301 301 302 303 304 305 307 305 305 306 307 298 300 307 298 291 291 304 305 308 308 309 309 309 311 312 313 312 312 314 312 311 313 313 314
303 301 301 302 300 299 299 298 297 298 297 297 297 298 300 302 305 304 304 300 305 301 306 308 308 310 305 304 304 308 309 309 309 310 309 313 314 314 314 314 314 314 312 309
302 295 299 298 298 298 298 297 296 295 296 296 295 297 298 299 300 300 297 302 302 303 306 307 308 306 308 305 305 308 311 312 304 311 312 313 313 314 314 314 315 313 313 311